RH
57 56 52 56 52 52 52 52 56 78 77 63 54 40 39 40 41 40 37 39 47 60 60 68 65 68 69 71 73 72 70 69 69 68 66 67 67 68
59 57 54 55 55 58 59 60 60 65 81 52 43 44 42 40 40 39 43 44 51 54 58 62 62 66 66 68 66 64 66 67 66 64 66 66 65 66
60 55 58 61 62 61 53 48 49 48 61 56 48 42 40 43 44 45 48 48 48 48 60 60 62 65 67 65 63 63 66 65 64 65 64 64 64 63
59 60 63 57 39 29 28 31 36 41 42 48 46 43 44 46 48 48 50 51 51 56 62 61 65 66 65 62 65 66 64 65 67 66 68 67 64 63
58 47 33 28 31 33 35 39 43 47 48 49 49 48 48 47 51 52 54 54 55 58 54 64 68 69 60 64 66 66 64 69 70 70 66 65 70 71
34 27 30 31 36 39 42 44 47 49 49 50 52 53 56 58 56 57 59 62 61 59 51 62 60 54 65 66 68 65 70 70 71 69 68 68 65 64
33 28 30 33 34 36 37 42 44 42 48 56 64 68 66 64 65 71 72 73 65 64 71 55 52 52 61 61 53 67 70 72 73 71 68 67 68 68
31 35 28 26 31 32 37 44 46 55 66 69 71 73 71 72 72 74 76 84 91 73 73 60 65 63 59 52 67 73 76 77 75 70 70 70 70 70
39 41 44 47 46 52 61 68 69 73 71 70 70 69 71 66 74 83 86 84 86 72 69 78 68 70 63 70 70 81 82 79 73 76 75 75 73 72
44 48 47 57 61 57 50 62 68 68 68 69 70 72 75 77 78 76 68 67 66 68 78 84 77 76 80 78 65 79 82 77 78 79 80 77 78 77
49 50 55 64 79 68 65 73 75 71 71 69 70 70 67 72 71 68 66 72 85 87 79 91 84 88 83 76 66 75 76 79 81 79 81 82 82 81
57 61 58 66 72 77 78 79 80 73 77 83 75 62 68 72 70 70 84 96 100 84 83 93 93 94 81 72 76 74 79 86 81 84 86 89 90 88
65 71 80 78 79 82 85 84 81 82 84 81 70 75 78 79 85 90 93 91 95 98 95 98 97 96 94 93 88 85 85 77 74 78 71 80 92 89
68 68 69 78 78 80 83 84 83 81 76 70 77 82 85 83 80 78 79 80 84 89 85 78 90 96 100 96 92 83 89 92 85 81 77 78 79 91
70 70 71 74 82 78 76 82 71 68 75 80 84 80 77 79 76 76 78 77 83 80 79 75 77 80 89 100 99 97 94 95 94 80 80 90 90 81
77 77 77 80 75 76 67 67 72 78 84 80 81 83 79 77 80 73 80 92 93 79 71 73 78 83 90 93 99 100 97 100 87 83 88 90 80 79
77 74 76 72 71 68 70 73 74 80 81 83 84 80 82 86 90 90 95 89 100 99 88 69 72 85 93 90 100 96 95 92 86 87 90 93 85 84
80 81 78 71 71 74 77 79 80 84 84 82 82 83 94 96 97 89 82 87 100 98 94 84 92 99 98 86 80 79 80 91 87 85 80 100 96 87
81 73 74 77 82 83 82 81 84 83 83 84 84 94 90 88 89 88 92 100 100 100 92 91 96 100 94 89 76 80 92 96 89 87 87 99 100 98
73 77 81 81 82 84 84 84 83 81 88 86 86 82 82 89 96 95 96 100 100 98 99 96 93 92 100 94 95 90 76 89 88 91 96 97 98 82
81 84 82 85 88 86 86 84 85 85 96 98 96 94 89 86 94 93 99 99 97 100 96 95 94 97 91 98 94 86 83 77 87 96 96 100 97 88
87 87 90 88 88 88 92 87 92 94 93 94 96 99 97 99 100 100 100 100 99 98 98 98 86 86 93 100 96 97 97 84 74 79 76 79 92 95
91 92 91 90 88 92 92 92 88 90 97 97 99 100 100 100 100 100 100 100 100 99 98 92 91 94 95 99 100 94 99 92 92 84 79 72 74 74
Wind_Speed
16 16 15 11 10 8 9 9 8 3 1 4 5 6 5 6 9 12 14 14 11 10 12 12 15 16 17 18 19 19 21 21 22 23 23 22 23 25
19 17 16 13 11 9 9 8 6 4 3 3 5 4 6 9 11 13 14 10 9 13 12 14 16 16 18 18 18 21 22 22 22 23 22 23 25 26
19 18 17 14 13 10 9 7 6 4 4 3 1 6 8 10 11 13 14 11 15 13 12 15 14 17 18 17 22 22 20 22 22 21 24 25 26 28
22 19 18 15 12 10 9 8 6 4 2 0 5 8 9 9 11 12 11 10 17 11 14 17 15 15 17 22 21 21 21 23 21 23 23 25 28 28
22 20 17 14 12 9 8 8 6 3 2 1 4 8 9 11 10 10 8 14 16 16 20 17 16 18 22 21 20 21 23 21 22 24 27 28 27 27
21 18 16 12 10 9 8 7 6 5 2 1 3 6 8 9 9 13 14 13 19 21 20 17 19 22 21 21 20 23 20 22 25 26 25 26 28 30
20 17 15 13 10 8 7 5 4 2 1 2 3 4 8 12 12 11 15 19 23 15 17 28 24 25 24 24 27 21 24 25 25 23 24 27 28 29
20 17 15 13 10 6 5 4 4 3 2 1 2 5 7 10 13 16 18 18 8 13 27 30 25 26 27 27 23 26 26 24 21 24 26 27 30 30
17 15 13 10 9 8 7 5 4 2 1 3 4 7 8 11 13 16 19 18 20 22 22 25 27 30 27 29 30 25 21 20 25 28 27 30 30 32
16 15 13 10 8 6 6 6 4 2 1 3 3 5 9 12 14 15 17 18 22 23 19 18 23 25 31 30 29 16 17 24 29 29 30 30 31 30
15 13 13 11 8 5 4 3 2 1 2 3 6 9 12 11 11 13 16 16 14 17 21 12 19 32 26 26 14 12 26 25 27 28 30 29 28 29
14 12 10 11 6 5 3 0 3 4 5 8 11 12 9 9 12 13 11 12 14 13 4 23 20 17 16 16 14 28 28 27 29 28 27 26 25 28
17 13 12 9 6 3 1 3 5 6 6 10 12 8 8 10 10 9 12 16 16 15 19 20 19 20 15 24 22 28 24 34 34 30 26 31 26 27
16 14 11 7 2 2 2 3 4 5 9 6 8 10 12 15 17 18 17 16 15 19 21 20 19 23 21 23 25 24 31 29 30 25 31 35 35 30
13 10 5 2 2 1 1 1 3 3 2 5 9 13 15 16 17 18 18 19 18 20 21 19 18 20 22 23 24 28 32 22 26 26 36 34 34 35
10 8 6 4 2 2 2 1 2 3 5 8 10 12 17 18 17 16 21 22 21 25 21 21 20 20 23 26 28 30 27 18 32 35 34 34 34 31
9 7 6 5 5 4 3 3 6 6 8 10 14 17 18 18 19 18 18 22 20 22 25 24 23 23 24 25 26 27 29 31 31 33 32 31 32 31
8 8 7 7 5 4 2 3 5 7 10 13 14 14 17 18 17 21 22 23 23 22 25 27 27 26 21 19 19 26 27 26 30 31 30 23 26 32
8 9 8 7 6 3 2 5 8 10 11 11 13 15 17 19 20 22 22 21 17 21 26 26 24 22 13 11 24 19 24 27 29 29 27 24 24 30
8 8 8 6 4 2 4 7 9 10 11 12 14 17 18 19 20 21 24 20 21 23 21 25 25 25 18 17 26 34 24 24 26 26 28 27 25 28
9 8 6 4 2 4 6 7 8 10 12 13 14 16 18 18 20 22 24 20 21 20 19 22 26 24 29 28 19 24 29 25 23 20 23 23 23 23
9 7 5 2 3 4 5 8 9 11 15 16 16 17 17 18 21 23 22 21 21 22 24 27 28 31 25 19 22 24 24 31 27 23 19 19 19 8
7 4 2 1 3 5 6 8 11 13 14 15 16 17 17 17 17 22 24 22 22 23 22 28 29 27 25 24 22 23 27 29 28 27 25 21 18 19
Wind_Direction
152 145 138 135 128 138 140 153 144 146 143 115 134 79 41 356 348 339 339 345 350 2 349 346 342 342 343 343 342 344 340 339 336 335 332 332 331 329
157 151 144 139 138 142 134 125 127 130 127 141 103 43 350 338 341 344 351 359 350 348 346 340 338 339 339 338 339 337 335 335 334 331 330 330 327 326
156 156 142 143 139 142 126 120 121 127 127 153 40 341 340 342 346 345 346 353 350 354 347 339 334 330 334 334 332 333 333 331 331 330 327 326 326 323
157 155 144 143 145 139 134 130 127 115 126 199 310 336 340 341 336 335 338 339 340 350 332 331 328 328 329 326 328 329 329 328 328 326 327 325 323 321
158 150 146 150 141 141 143 140 133 128 113 329 320 331 334 340 332 334 341 336 332 329 328 328 327 324 324 325 325 326 326 326 326 326 323 322 321 320
148 147 143 147 159 159 156 143 134 137 146 31 335 333 339 345 350 343 334 332 324 327 326 328 319 322 327 326 324 323 323 323 323 323 323 322 319 316
152 146 156 159 161 170 166 154 164 160 82 10 355 337 325 332 345 338 328 327 321 331 329 319 331 327 328 326 323 326 321 319 321 321 322 320 318 315
150 149 150 153 148 151 136 129 112 118 112 72 355 322 312 327 324 317 318 324 332 331 328 320 327 322 322 324 323 318 318 320 321 322 322 321 320 317
152 147 146 142 139 147 133 128 121 140 277 302 279 293 298 321 319 316 315 319 307 318 325 314 323 314 323 319 321 317 318 322 321 320 319 318 316 315
155 156 149 157 150 142 133 140 145 146 28 327 305 309 310 314 311 313 316 314 309 318 329 302 314 314 316 318 325 316 318 319 319 318 318 316 315 313
153 155 157 153 140 121 123 135 150 187 242 295 297 301 305 307 309 314 321 320 318 320 326 315 316 317 315 316 322 305 315 317 318 317 315 316 315 317
147 149 156 157 142 115 107 3 317 339 328 315 318 313 310 307 318 320 327 337 336 319 308 324 314 324 319 315 303 320 319 318 319 317 318 319 320 319
151 157 150 135 122 98 49 315 311 315 297 318 317 327 327 327 331 326 319 320 318 300 308 314 308 312 298 303 307 311 313 314 325 326 329 329 323 320
149 146 136 137 121 25 297 314 294 292 308 329 336 339 339 333 325 321 322 322 312 306 311 313 300 305 298 300 304 309 312 316 320 324 328 329 330 324
136 128 138 160 149 286 329 345 297 323 325 339 345 340 338 337 330 329 327 326 318 314 315 316 310 309 302 293 295 306 311 316 314 317 326 324 322 328
127 138 143 161 151 171 165 21 11 360 352 350 347 341 333 332 326 328 320 322 318 320 326 324 319 315 307 307 300 297 301 299 311 319 320 319 325 331
146 160 164 160 154 129 85 3 346 15 2 348 343 337 332 330 327 329 326 323 312 312 319 326 330 326 316 310 296 294 299 305 312 317 319 320 324 331
156 155 147 137 121 121 99 21 10 359 349 341 335 325 328 328 326 323 324 325 318 314 317 323 323 320 315 312 301 298 302 302 309 316 320 312 313 323
150 140 131 124 124 129 62 14 0 348 337 329 322 324 325 323 319 320 322 319 307 307 314 319 316 314 309 311 314 311 302 302 308 311 318 311 304 310
143 138 136 132 124 71 18 5 345 330 325 319 320 324 322 319 314 313 320 311 304 305 307 312 317 320 300 302 312 308 316 301 305 304 308 317 307 316
147 141 137 135 95 22 2 337 322 321 316 320 321 320 321 322 314 314 315 310 311 310 308 309 311 317 311 313 303 303 312 319 308 297 306 305 309 313
145 146 144 109 30 352 323 318 319 323 321 321 319 317 317 316 307 309 312 309 308 307 305 308 319 319 316 304 300 301 302 316 325 320 314 311 303 297
146 140 98 39 317 313 319 321 315 315 317 318 320 315 316 314 308 317 320 313 308 307 311 313 315 319 309 302 299 303 304 310 319 323 318 324 317 313